QPF
0.00 0.00 0.00 0.00 0.00 0.00 0.00 0.00 0.00 0.00 0.01 0.01 0.01 0.01 0.01 0.01 0.01 0.01 0.02 0.01 0.02 0.02 0.02 0.05 0.03 0.03 0.05 0.07 0.08 0.07 0.05 0.03 0.02 0.03 0.04 0.04 0.04 0.04 0.04 0.05 0.05 0.04 0.05 0.07
0.00 0.00 0.00 0.00 0.00 0.00 0.00 0.00 0.00 0.00 0.01 0.01 0.01 0.02 0.02 0.02 0.01 0.01 0.01 0.01 0.01 0.01 0.02 0.05 0.07 0.05 0.05 0.08 0.08 0.07 0.07 0.06 0.05 0.04 0.03 0.03 0.03 0.04 0.06 0.06 0.06 0.06 0.05 0.05
0.00 0.00 0.00 0.00 0.00 0.00 0.00 0.00 0.00 0.00 0.01 0.01 0.02 0.02 0.02 0.02 0.01 0.01 0.02 0.02 0.02 0.01 0.01 0.04 0.13 0.17 0.11 0.08 0.08 0.08 0.10 0.11 0.10 0.06 0.04 0.04 0.04 0.05 0.05 0.05 0.07 0.08 0.07 0.04
0.00 0.00 0.00 0.00 0.00 0.00 0.00 0.00 0.01 0.01 0.01 0.01 0.01 0.02 0.03 0.02 0.01 0.01 0.03 0.07 0.10 0.05 0.02 0.02 0.06 0.06 0.06 0.06 0.09 0.11 0.10 0.09 0.09 0.06 0.05 0.06 0.05 0.06 0.04 0.03 0.04 0.04 0.04 0.03
0.00 0.00 0.00 0.00 0.00 0.00 0.01 0.00 0.00 0.01 0.01 0.01 0.01 0.01 0.02 0.02 0.02 0.02 0.02 0.03 0.07 0.05 0.03 0.03 0.04 0.03 0.03 0.04 0.04 0.05 0.05 0.06 0.06 0.07 0.07 0.07 0.06 0.05 0.04 0.03 0.03 0.03 0.04 0.04
0.00 0.00 0.00 0.01 0.00 0.00 0.00 0.00 0.00 0.00 0.01 0.01 0.01 0.01 0.02 0.02 0.01 0.01 0.01 0.02 0.02 0.02 0.01 0.03 0.07 0.04 0.03 0.03 0.04 0.03 0.03 0.03 0.02 0.03 0.04 0.04 0.04 0.03 0.04 0.03 0.03 0.02 0.02 0.04
0.00 0.00 0.00 0.01 0.00 0.00 0.00 0.00 0.01 0.01 0.01 0.01 0.00 0.01 0.01 0.01 0.01 0.01 0.01 0.01 0.01 0.01 0.01 0.01 0.04 0.05 0.04 0.03 0.04 0.05 0.05 0.03 0.02 0.02 0.02 0.02 0.03 0.03 0.03 0.04 0.03 0.03 0.03 0.04
0.00 0.00 0.00 0.00 0.00 0.00 0.00 0.01 0.02 0.02 0.01 0.01 0.01 0.02 0.03 0.02 0.02 0.02 0.02 0.02 0.02 0.02 0.01 0.01 0.01 0.03 0.04 0.03 0.04 0.05 0.07 0.04 0.02 0.01 0.01 0.02 0.03 0.04 0.03 0.05 0.05 0.03 0.03 0.03
0.00 0.00 0.00 0.00 0.00 0.00 0.01 0.01 0.01 0.02 0.02 0.02 0.02 0.03 0.04 0.05 0.05 0.04 0.03 0.03 0.03 0.03 0.02 0.02 0.01 0.02 0.03 0.05 0.05 0.06 0.04 0.03 0.02 0.02 0.02 0.03 0.04 0.05 0.03 0.05 0.05 0.05 0.05 0.04
0.00 0.00 0.00 0.00 0.00 0.00 0.01 0.01 0.01 0.02 0.02 0.03 0.03 0.04 0.06 0.07 0.05 0.04 0.04 0.03 0.03 0.04 0.03 0.02 0.02 0.04 0.04 0.08 0.07 0.03 0.03 0.03 0.03 0.03 0.04 0.04 0.05 0.05 0.04 0.05 0.06 0.05 0.05 0.05
0.00 0.00 0.01 0.00 0.00 0.01 0.01 0.02 0.02 0.02 0.02 0.03 0.04 0.04 0.04 0.07 0.07 0.06 0.04 0.03 0.04 0.03 0.03 0.02 0.02 0.02 0.02 0.03 0.04 0.03 0.02 0.03 0.03 0.03 0.06 0.05 0.05 0.05 0.05 0.04 0.04 0.04 0.04 0.04
0.00 0.01 0.01 0.00 0.00 0.01 0.01 0.01 0.02 0.03 0.03 0.04 0.04 0.04 0.04 0.07 0.07 0.06 0.05 0.07 0.08 0.06 0.03 0.02 0.02 0.01 0.01 0.02 0.03 0.03 0.03 0.04 0.05 0.05 0.05 0.06 0.08 0.08 0.06 0.04 0.04 0.04 0.05 0.04
0.00 0.01 0.01 0.01 0.01 0.01 0.01 0.01 0.02 0.02 0.02 0.04 0.04 0.04 0.04 0.06 0.07 0.07 0.05 0.07 0.07 0.05 0.04 0.02 0.02 0.01 0.01 0.02 0.04 0.05 0.05 0.07 0.05 0.06 0.07 0.08 0.10 0.08 0.06 0.05 0.04 0.05 0.06 0.05
0.01 0.01 0.01 0.01 0.01 0.01 0.01 0.01 0.01 0.02 0.03 0.06 0.04 0.04 0.03 0.05 0.07 0.06 0.05 0.05 0.06 0.06 0.06 0.03 0.02 0.02 0.02 0.03 0.05 0.07 0.10 0.10 0.08 0.10 0.10 0.07 0.06 0.04 0.05 0.06 0.05 0.05 0.05 0.06
0.01 0.01 0.01 0.00 0.00 0.00 0.00 0.00 0.00 0.01 0.01 0.02 0.02 0.03 0.03 0.04 0.05 0.08 0.08 0.06 0.05 0.07 0.06 0.04 0.03 0.02 0.03 0.04 0.05 0.14 0.19 0.11 0.11 0.12 0.06 0.05 0.04 0.04 0.05 0.07 0.07 0.06 0.07 0.07
0.01 0.01 0.01 0.00 0.00 0.01 0.01 0.00 0.00 0.00 0.00 0.01 0.01 0.02 0.04 0.04 0.06 0.09 0.12 0.10 0.06 0.06 0.05 0.05 0.07 0.07 0.06 0.06 0.07 0.14 0.18 0.11 0.08 0.06 0.06 0.07 0.06 0.05 0.05 0.06 0.08 0.07 0.08 0.09
0.02 0.01 0.01 0.01 0.01 0.02 0.02 0.02 0.01 0.01 0.02 0.02 0.02 0.02 0.04 0.05 0.05 0.09 0.13 0.15 0.13 0.10 0.10 0.08 0.09 0.12 0.12 0.12 0.11 0.13 0.12 0.07 0.06 0.08 0.09 0.10 0.08 0.07 0.06 0.07 0.09 0.09 0.08 0.09
0.03 0.02 0.02 0.01 0.02 0.04 0.04 0.04 0.03 0.04 0.04 0.04 0.04 0.03 0.07 0.07 0.05 0.07 0.14 0.15 0.12 0.12 0.10 0.08 0.08 0.09 0.10 0.10 0.09 0.09 0.10 0.07 0.05 0.06 0.06 0.06 0.07 0.07 0.08 0.08 0.10 0.09 0.07 0.07
0.02 0.03 0.03 0.04 0.04 0.07 0.11 0.07 0.05 0.05 0.06 0.05 0.09 0.05 0.04 0.04 0.06 0.07 0.08 0.09 0.09 0.08 0.07 0.06 0.06 0.05 0.04 0.05 0.06 0.06 0.07 0.06 0.05 0.05 0.06 0.07 0.07 0.07 0.07 0.07 0.09 0.09 0.07 0.05
0.01 0.02 0.04 0.07 0.08 0.08 0.06 0.04 0.05 0.03 0.04 0.05 0.05 0.08 0.10 0.07 0.07 0.06 0.05 0.05 0.05 0.05 0.05 0.04 0.04 0.03 0.02 0.02 0.03 0.03 0.04 0.05 0.06 0.06 0.07 0.07 0.07 0.07 0.07 0.07 0.08 0.08 0.08 0.07
0.01 0.02 0.04 0.05 0.06 0.05 0.03 0.04 0.05 0.06 0.06 0.08 0.07 0.06 0.10 0.11 0.07 0.06 0.05 0.05 0.07 0.07 0.06 0.06 0.06 0.04 0.04 0.03 0.03 0.03 0.03 0.06 0.08 0.08 0.06 0.05 0.06 0.06 0.06 0.06 0.06 0.06 0.06 0.06
0.03 0.03 0.03 0.03 0.04 0.04 0.03 0.05 0.09 0.12 0.09 0.10 0.11 0.09 0.07 0.08 0.07 0.06 0.08 0.05 0.07 0.08 0.09 0.08 0.07 0.06 0.05 0.06 0.05 0.04 0.04 0.06 0.07 0.07 0.07 0.06 0.05 0.04 0.05 0.08 0.08 0.06 0.05 0.05
0.04 0.04 0.05 0.05 0.05 0.04 0.03 0.07 0.11 0.13 0.10 0.08 0.08 0.07 0.07 0.08 0.06 0.06 0.12 0.08 0.05 0.05 0.07 0.09 0.07 0.06 0.06 0.07 0.07 0.05 0.04 0.04 0.05 0.05 0.05 0.05 0.07 0.07 0.07 0.08 0.08 0.08 0.06 0.05
0.04 0.04 0.05 0.05 0.05 0.05 0.06 0.08 0.12 0.11 0.09 0.07 0.09 0.08 0.06 0.06 0.07 0.07 0.09 0.09 0.04 0.03 0.04 0.05 0.06 0.05 0.06 0.07 0.08 0.07 0.06 0.05 0.05 0.04 0.04 0.05 0.07 0.08 0.10 0.09 0.08 0.07 0.07 0.06
0.05 0.05 0.05 0.06 0.06 0.06 0.07 0.07 0.08 0.09 0.10 0.09 0.10 0.08 0.07 0.06 0.07 0.08 0.09 0.08 0.05 0.03 0.04 0.06 0.07 0.06 0.06 0.06 0.07 0.07 0.06 0.05 0.04 0.04 0.03 0.03 0.05 0.07 0.07 0.08 0.08 0.07 0.06 0.06
0.04 0.05 0.06 0.07 0.08 0.07 0.07 0.04 0.05 0.08 0.09 0.10 0.09 0.09 0.09 0.08 0.07 0.09 0.08 0.07 0.08 0.06 0.04 0.05 0.06 0.07 0.08 0.08 0.06 0.06 0.05 0.04 0.03 0.03 0.03 0.03 0.04 0.07 0.06 0.05 0.05 0.05 0.05 0.05
MSLP
1006.57 1007.33 1007.90 1008.26 1008.38 1008.31 1008.08 1007.77 1007.41 1007.07 1006.75 1006.47 1006.23 1006.03 1005.88 1005.78 1005.76 1005.83 1006.02 1006.32 1006.74 1007.24 1007.78 1008.33 1008.84 1009.28 1009.63 1009.90 1010.11 1010.31 1010.52 1010.79 1011.13 1011.53 1011.98 1012.44 1012.88 1013.26 1013.55 1013.75 1013.88 1013.97 1014.06 1014.19
1006.54 1007.15 1007.58 1007.82 1007.89 1007.85 1007.74 1007.61 1007.48 1007.35 1007.22 1007.04 1006.82 1006.54 1006.21 1005.89 1005.63 1005.48 1005.49 1005.69 1006.08 1006.63 1007.27 1007.94 1008.56 1009.09 1009.50 1009.80 1010.02 1010.20 1010.41 1010.68 1011.04 1011.48 1011.98 1012.49 1012.97 1013.38 1013.68 1013.88 1014.00 1014.08 1014.15 1014.28
1006.23 1006.70 1006.99 1007.13 1007.18 1007.20 1007.24 1007.33 1007.44 1007.56 1007.62 1007.56 1007.35 1006.99 1006.49 1005.94 1005.42 1005.03 1004.85 1004.92 1005.26 1005.83 1006.54 1007.32 1008.06 1008.69 1009.19 1009.55 1009.80 1010.01 1010.23 1010.52 1010.90 1011.37 1011.92 1012.47 1012.99 1013.42 1013.74 1013.95 1014.07 1014.15 1014.23 1014.37
1005.74 1006.05 1006.22 1006.29 1006.35 1006.46 1006.67 1006.99 1007.36 1007.73 1007.98 1008.04 1007.86 1007.41 1006.76 1005.98 1005.22 1004.59 1004.20 1004.13 1004.39 1004.94 1005.70 1006.55 1007.39 1008.13 1008.72 1009.15 1009.46 1009.71 1009.96 1010.28 1010.69 1011.19 1011.76 1012.33 1012.87 1013.32 1013.65 1013.88 1014.02 1014.12 1014.23 1014.39
1005.15 1005.32 1005.38 1005.41 1005.50 1005.72 1006.10 1006.64 1007.26 1007.85 1008.29 1008.46 1008.30 1007.80 1007.02 1006.05 1005.07 1004.22 1003.65 1003.43 1003.58 1004.09 1004.85 1005.74 1006.64 1007.46 1008.13 1008.63 1009.01 1009.32 1009.61 1009.96 1010.40 1010.92 1011.49 1012.08 1012.62 1013.07 1013.41 1013.64 1013.81 1013.94 1014.08 1014.28
1004.55 1004.59 1004.57 1004.57 1004.70 1005.03 1005.57 1006.30 1007.12 1007.90 1008.49 1008.76 1008.63 1008.10 1007.22 1006.11 1004.97 1003.95 1003.21 1002.85 1002.90 1003.33 1004.06 1004.96 1005.89 1006.75 1007.47 1008.04 1008.48 1008.84 1009.18 1009.56 1010.02 1010.55 1011.12 1011.70 1012.23 1012.67 1013.01 1013.25 1013.43 1013.59 1013.77 1014.01
1004.00 1003.93 1003.84 1003.83 1004.00 1004.41 1005.08 1005.94 1006.91 1007.81 1008.49 1008.83 1008.73 1008.18 1007.25 1006.07 1004.83 1003.70 1002.85 1002.39 1002.35 1002.71 1003.38 1004.24 1005.16 1006.03 1006.78 1007.38 1007.87 1008.27 1008.66 1009.08 1009.56 1010.10 1010.67 1011.24 1011.75 1012.17 1012.49 1012.73 1012.91 1013.09 1013.30 1013.57
1003.48 1003.33 1003.20 1003.20 1003.40 1003.86 1004.59 1005.53 1006.55 1007.51 1008.23 1008.58 1008.49 1007.95 1007.02 1005.82 1004.56 1003.40 1002.51 1001.99 1001.89 1002.19 1002.79 1003.59 1004.46 1005.31 1006.05 1006.67 1007.18 1007.63 1008.06 1008.52 1009.03 1009.59 1010.16 1010.72 1011.21 1011.62 1011.92 1012.15 1012.32 1012.50 1012.72 1013.02
1002.96 1002.76 1002.63 1002.64 1002.86 1003.35 1004.09 1005.02 1006.03 1006.95 1007.64 1007.98 1007.88 1007.35 1006.45 1005.30 1004.09 1002.98 1002.12 1001.61 1001.49 1001.73 1002.27 1003.00 1003.80 1004.58 1005.29 1005.90 1006.43 1006.91 1007.38 1007.89 1008.44 1009.02 1009.62 1010.18 1010.67 1011.06 1011.35 1011.56 1011.73 1011.90 1012.11 1012.40
1002.37 1002.19 1002.08 1002.12 1002.37 1002.86 1003.57 1004.44 1005.36 1006.19 1006.79 1007.06 1006.94 1006.43 1005.59 1004.54 1003.44 1002.45 1001.68 1001.22 1001.11 1001.33 1001.81 1002.46 1003.17 1003.87 1004.52 1005.10 1005.62 1006.12 1006.64 1007.19 1007.79 1008.42 1009.05 1009.64 1010.15 1010.55 1010.84 1011.04 1011.19 1011.34 1011.54 1011.81
1001.69 1001.57 1001.53 1001.64 1001.94 1002.42 1003.08 1003.86 1004.65 1005.34 1005.81 1005.99 1005.83 1005.34 1004.59 1003.67 1002.73 1001.89 1001.26 1000.90 1000.83 1001.04 1001.46 1002.01 1002.62 1003.23 1003.79 1004.31 1004.81 1005.32 1005.86 1006.46 1007.12 1007.81 1008.49 1009.13 1009.67 1010.09 1010.40 1010.60 1010.75 1010.89 1011.06 1011.31
1000.93 1000.92 1001.01 1001.23 1001.60 1002.10 1002.72 1003.40 1004.05 1004.59 1004.93 1005.01 1004.81 1004.35 1003.69 1002.92 1002.16 1001.49 1001.01 1000.76 1000.75 1000.95 1001.31 1001.77 1002.26 1002.74 1003.20 1003.65 1004.10 1004.59 1005.14 1005.78 1006.48 1007.22 1007.96 1008.65 1009.24 1009.70 1010.04 1010.27 1010.43 1010.56 1010.72 1010.94
1000.16 1000.32 1000.58 1000.95 1001.43 1001.99 1002.59 1003.20 1003.74 1004.14 1004.36 1004.36 1004.13 1003.71 1003.15 1002.53 1001.94 1001.45 1001.13 1000.98 1001.02 1001.20 1001.50 1001.84 1002.20 1002.55 1002.88 1003.22 1003.60 1004.04 1004.58 1005.22 1005.94 1006.72 1007.50 1008.23 1008.87 1009.38 1009.76 1010.03 1010.21 1010.36 1010.52 1010.71
999.51 999.86 1000.33 1000.88 1001.51 1002.15 1002.79 1003.37 1003.84 1004.15 1004.29 1004.23 1004.00 1003.63 1003.17 1002.70 1002.27 1001.94 1001.74 1001.68 1001.75 1001.91 1002.12 1002.34 1002.56 1002.76 1002.95 1003.16 1003.44 1003.80 1004.29 1004.89 1005.60 1006.37 1007.17 1007.92 1008.59 1009.14 1009.57 1009.87 1010.10 1010.27 1010.44 1010.63
999.10 999.66 1000.34 1001.10 1001.88 1002.65 1003.36 1003.95 1004.40 1004.67 1004.77 1004.70 1004.50 1004.19 1003.84 1003.50 1003.21 1003.01 1002.92 1002.92 1002.99 1003.11 1003.23 1003.33 1003.40 1003.45 1003.49 1003.56 1003.71 1003.97 1004.37 1004.89 1005.54 1006.27 1007.03 1007.76 1008.44 1009.00 1009.46 1009.81 1010.07 1010.27 1010.47 1010.67
999.07 999.81 1000.69 1001.63 1002.57 1003.47 1004.25 1004.90 1005.36 1005.65 1005.76 1005.72 1005.56 1005.33 1005.09 1004.86 1004.69 1004.60 1004.58 1004.61 1004.68 1004.74 1004.78 1004.77 1004.70 1004.60 1004.50 1004.44 1004.46 1004.59 1004.86 1005.28 1005.82 1006.45 1007.13 1007.81 1008.44 1009.00 1009.46 1009.83 1010.12 1010.36 1010.58 1010.80
999.49 1000.37 1001.39 1002.47 1003.53 1004.53 1005.39 1006.09 1006.60 1006.92 1007.07 1007.08 1007.00 1006.86 1006.71 1006.60 1006.53 1006.51 1006.54 1006.60 1006.65 1006.66 1006.62 1006.51 1006.34 1006.12 1005.90 1005.72 1005.61 1005.62 1005.76 1006.04 1006.44 1006.94 1007.50 1008.08 1008.64 1009.15 1009.58 1009.95 1010.26 1010.52 1010.76 1010.99
1000.40 1001.35 1002.44 1003.58 1004.70 1005.74 1006.64 1007.37 1007.91 1008.27 1008.47 1008.55 1008.54 1008.50 1008.45 1008.42 1008.43 1008.48 1008.54 1008.61 1008.64 1008.62 1008.53 1008.35 1008.11 1007.82 1007.52 1007.25 1007.05 1006.94 1006.96 1007.10 1007.36 1007.71 1008.13 1008.59 1009.04 1009.46 1009.85 1010.18 1010.48 1010.74 1010.98 1011.22
1001.75 1002.70 1003.77 1004.88 1005.97 1006.98 1007.86 1008.58 1009.12 1009.50 1009.74 1009.88 1009.94 1009.97 1010.00 1010.05 1010.13 1010.22 1010.31 1010.39 1010.41 1010.38 1010.26 1010.06 1009.79 1009.47 1009.14 1008.83 1008.57 1008.39 1008.31 1008.33 1008.46 1008.67 1008.95 1009.26 1009.59 1009.92 1010.23 1010.51 1010.77 1011.01 1011.23 1011.45
1003.48 1004.35 1005.32 1006.32 1007.29 1008.19 1008.98 1009.62 1010.12 1010.48 1010.74 1010.91 1011.02 1011.12 1011.21 1011.32 1011.43 1011.56 1011.67 1011.75 1011.78 1011.74 1011.63 1011.44 1011.18 1010.88 1010.56 1010.25 1009.98 1009.77 1009.63 1009.58 1009.60 1009.69 1009.84 1010.03 1010.24 1010.47 1010.69 1010.90 1011.10 1011.29 1011.48 1011.65
1005.47 1006.21 1007.01 1007.83 1008.62 1009.34 1009.97 1010.48 1010.89 1011.20 1011.43 1011.61 1011.75 1011.88 1012.01 1012.15 1012.30 1012.44 1012.56 1012.65 1012.68 1012.65 1012.56 1012.39 1012.18 1011.92 1011.65 1011.38 1011.14 1010.93 1010.78 1010.68 1010.64 1010.65 1010.71 1010.79 1010.90 1011.02 1011.15 1011.29 1011.42 1011.55 1011.67 1011.79
1007.64 1008.20 1008.80 1009.39 1009.94 1010.44 1010.87 1011.22 1011.51 1011.73 1011.90 1012.05 1012.19 1012.33 1012.48 1012.63 1012.78 1012.93 1013.05 1013.13 1013.17 1013.15 1013.07 1012.95 1012.78 1012.59 1012.38 1012.17 1011.98 1011.81 1011.67 1011.57 1011.50 1011.46 1011.45 1011.46 1011.48 1011.52 1011.57 1011.62 1011.68 1011.73 1011.79 1011.84
1009.85 1010.24 1010.62 1010.97 1011.28 1011.54 1011.76 1011.93 1012.07 1012.19 1012.29 1012.40 1012.51 1012.64 1012.78 1012.92 1013.06 1013.19 1013.30 1013.36 1013.39 1013.37 1013.31 1013.21 1013.09 1012.95 1012.80 1012.65 1012.51 1012.39 1012.29 1012.20 1012.12 1012.06 1012.01 1011.97 1011.94 1011.90 1011.88 1011.85 1011.83 1011.82 1011.80 1011.79
1012.03 1012.25 1012.42 1012.55 1012.63 1012.67 1012.69 1012.69 1012.70 1012.71 1012.73 1012.79 1012.87 1012.97 1013.09 1013.21 1013.33 1013.43 1013.50 1013.54 1013.55 1013.51 1013.45 1013.36 1013.26 1013.15 1013.04 1012.93 1012.84 1012.76 1012.68 1012.62 1012.55 1012.48 1012.41 1012.33 1012.24 1012.15 1012.06 1011.97 1011.87 1011.78 1011.70 1011.62
1014.06 1014.14 1014.14 1014.08 1013.97 1013.84 1013.69 1013.56 1013.45 1013.37 1013.34 1013.34 1013.39 1013.46 1013.55 1013.65 1013.74 1013.80 1013.84 1013.84 1013.81 1013.75 1013.66 1013.56 1013.46 1013.35 1013.25 1013.17 1013.09 1013.03 1012.97 1012.91 1012.84 1012.76 1012.67 1012.56 1012.43 1012.28 1012.13 1011.97 1011.80 1011.64 1011.50 1011.37
1015.85 1015.82 1015.70 1015.50 1015.26 1015.00 1014.74 1014.51 1014.33 1014.19 1014.12 1014.09 1014.11 1014.17 1014.23 1014.31 1014.36 1014.40 1014.40 1014.36 1014.30 1014.20 1014.08 1013.95 1013.82 1013.69 1013.58 1013.48 1013.40 1013.32 1013.25 1013.18 1013.10 1013.00 1012.87 1012.72 1012.55 1012.35 1012.13 1011.90 1011.67 1011.44 1011.23 1011.05
Thickness
5748 5733 5727 5736 5742 5743 5745 5742 5742 5757 5775 5769 5763 5765 5773 5782 5783 5782 5782 5782 5781 5781 5784 5785 5785 5784 5780 5775 5771 5768 5765 5763 5762 5759 5755 5752 5750 5750 5749 5749 5749 5748 5746 5744
5727 5724 5741 5748 5749 5747 5742 5736 5740 5755 5770 5767 5759 5761 5771 5777 5778 5780 5779 5778 5778 5777 5778 5778 5778 5777 5774 5771 5767 5764 5762 5760 5759 5757 5755 5753 5750 5748 5747 5747 5746 5746 5744 5743
5719 5734 5750 5746 5742 5739 5739 5736 5740 5744 5757 5761 5754 5746 5756 5769 5774 5777 5777 5778 5778 5777 5775 5774 5773 5772 5770 5767 5764 5762 5759 5757 5755 5753 5751 5749 5745 5743 5741 5741 5741 5742 5741 5740
5724 5741 5745 5740 5738 5740 5731 5751 5752 5749 5738 5729 5740 5715 5739 5755 5760 5766 5769 5770 5772 5775 5775 5773 5771 5768 5767 5766 5764 5761 5757 5754 5751 5750 5747 5743 5740 5737 5738 5738 5738 5739 5738 5737
5724 5739 5738 5734 5742 5747 5743 5756 5752 5748 5735 5725 5728 5714 5726 5745 5746 5756 5764 5767 5770 5771 5772 5770 5770 5768 5766 5764 5762 5759 5755 5751 5749 5747 5745 5742 5739 5737 5736 5736 5735 5734 5734 5733
5731 5747 5747 5747 5754 5755 5754 5748 5742 5733 5718 5704 5720 5713 5714 5732 5746 5754 5762 5765 5767 5768 5768 5767 5767 5765 5762 5760 5757 5754 5750 5748 5746 5745 5743 5740 5737 5735 5733 5731 5730 5729 5729 5729
5719 5733 5747 5753 5740 5744 5740 5716 5695 5693 5687 5695 5722 5714 5716 5742 5756 5758 5759 5761 5764 5765 5763 5761 5760 5758 5756 5753 5751 5749 5746 5743 5743 5741 5739 5738 5737 5734 5731 5729 5727 5725 5724 5723
5698 5704 5733 5744 5738 5730 5728 5715 5688 5679 5680 5695 5714 5707 5722 5749 5758 5760 5759 5760 5760 5759 5758 5757 5757 5755 5752 5750 5748 5745 5742 5740 5739 5737 5736 5736 5734 5732 5729 5727 5725 5723 5721 5721
5696 5702 5736 5746 5750 5739 5724 5713 5715 5695 5694 5689 5696 5710 5727 5742 5744 5747 5749 5751 5750 5752 5752 5751 5751 5750 5748 5747 5745 5743 5740 5737 5736 5734 5733 5731 5730 5728 5726 5724 5722 5720 5719 5719
5708 5701 5722 5738 5743 5739 5732 5723 5700 5687 5676 5673 5688 5698 5705 5721 5727 5735 5737 5738 5740 5743 5744 5745 5745 5745 5744 5744 5742 5741 5739 5735 5733 5730 5729 5727 5725 5724 5722 5720 5717 5716 5716 5715
5708 5694 5703 5718 5719 5717 5719 5714 5701 5687 5684 5672 5670 5686 5720 5722 5727 5728 5731 5733 5734 5735 5736 5738 5739 5740 5739 5739 5737 5735 5733 5730 5728 5726 5724 5722 5721 5719 5717 5716 5714 5713 5712 5711
5701 5687 5682 5700 5721 5731 5722 5712 5698 5681 5679 5678 5672 5684 5724 5723 5725 5725 5726 5729 5731 5732 5731 5731 5732 5732 5731 5731 5731 5729 5728 5725 5723 5722 5719 5717 5715 5714 5711 5710 5710 5709 5708 5706
5697 5679 5668 5678 5693 5708 5709 5708 5702 5690 5678 5672 5668 5683 5717 5717 5718 5720 5720 5722 5723 5725 5725 5725 5724 5723 5723 5724 5724 5723 5722 5720 5718 5716 5713 5711 5709 5708 5707 5705 5705 5704 5703 5701
5698 5674 5666 5664 5673 5688 5692 5699 5700 5688 5670 5672 5679 5686 5699 5705 5707 5711 5713 5715 5715 5716 5718 5717 5716 5715 5715 5716 5717 5717 5716 5715 5712 5710 5707 5705 5704 5703 5703 5701 5700 5699 5698 5696
5683 5667 5673 5678 5688 5692 5691 5692 5694 5688 5684 5677 5682 5686 5694 5701 5704 5706 5708 5708 5708 5708 5709 5709 5709 5709 5708 5708 5710 5710 5709 5708 5706 5703 5701 5700 5700 5699 5697 5695 5693 5693 5692 5691
5668 5663 5667 5670 5682 5684 5680 5684 5687 5687 5688 5684 5683 5683 5696 5699 5700 5699 5700 5701 5700 5700 5701 5702 5704 5704 5703 5703 5703 5703 5701 5700 5699 5697 5695 5694 5693 5692 5690 5688 5687 5685 5684 5684
5655 5653 5649 5648 5665 5669 5660 5672 5678 5678 5681 5680 5672 5678 5687 5686 5689 5689 5692 5692 5691 5692 5693 5693 5695 5696 5697 5697 5697 5696 5695 5693 5691 5690 5688 5687 5686 5684 5683 5682 5680 5678 5677 5677
5648 5642 5634 5637 5647 5638 5656 5675 5678 5673 5671 5675 5675 5676 5679 5680 5680 5682 5684 5684 5683 5684 5684 5685 5685 5687 5688 5689 5689 5689 5688 5686 5685 5683 5682 5681 5679 5678 5676 5674 5673 5671 5670 5670
5650 5639 5629 5625 5627 5636 5654 5666 5666 5661 5658 5666 5666 5668 5670 5673 5671 5670 5676 5677 5677 5677 5677 5678 5678 5679 5680 5681 5681 5680 5679 5678 5677 5676 5675 5675 5674 5671 5668 5667 5666 5665 5664 5663
5642 5636 5625 5620 5620 5623 5643 5659 5666 5659 5645 5656 5659 5658 5659 5661 5653 5657 5667 5669 5670 5671 5671 5671 5671 5671 5672 5673 5673 5671 5670 5670 5669 5670 5670 5670 5668 5665 5663 5661 5660 5659 5658 5658
5622 5619 5616 5614 5614 5624 5642 5653 5657 5638 5636 5646 5650 5651 5652 5649 5651 5655 5659 5660 5662 5664 5664 5664 5664 5664 5664 5665 5665 5662 5662 5662 5664 5664 5663 5662 5661 5659 5657 5655 5654 5653 5652 5651
5611 5608 5607 5607 5605 5614 5638 5642 5635 5631 5638 5640 5642 5644 5645 5645 5648 5649 5651 5652 5653 5653 5655 5657 5656 5656 5656 5657 5657 5654 5654 5656 5657 5657 5655 5654 5652 5652 5651 5649 5648 5647 5646 5644
5605 5607 5605 5606 5609 5620 5629 5631 5632 5632 5631 5633 5634 5636 5637 5637 5638 5640 5642 5643 5645 5646 5646 5649 5649 5648 5648 5648 5648 5646 5647 5649 5648 5647 5646 5646 5645 5644 5643 5642 5641 5640 5639 5638
5603 5607 5604 5603 5610 5616 5621 5624 5626 5627 5626 5628 5629 5630 5631 5629 5630 5631 5633 5634 5636 5638 5638 5639 5640 5640 5639 5640 5641 5639 5639 5640 5639 5638 5638 5638 5637 5636 5635 5635 5635 5634 5633 5633
5592 5597 5595 5596 5603 5608 5613 5615 5618 5620 5621 5621 5621 5623 5623 5622 5622 5624 5625 5626 5628 5629 5630 5631 5632 5632 5632 5633 5632 5634 5634 5632 5630 5630 5629 5629 5629 5628 5627 5627 5627 5627 5628 5629
5587 5588 5587 5589 5596 5596 5600 5607 5612 5612 5613 5612 5613 5615 5616 5617 5616 5618 5618 5620 5620 5621 5623 5624 5625 5625 5625 5626 5626 5627 5627 5625 5623 5622 5621 5621 5620 5620 5620 5619 5619 5621 5622 5623